Flight Briefing for CPX215

Departure Arrival
Don Miguel Hidalgo y Costilla International Airport (MMGL)
Click to view FAA NOTAMS
Benito Juárez International Airport (MMMX)
Click to view FAA NOTAMS
Departure Time Arrival Time
0900 UTC 1000 UTC
Aircraft Distance
B767-300BDSF 268nm
Departure METAR Arrival METAR
MMGL 230641Z 00000KT 10SM SKC 20/01 A3011 MMMX 230647Z 28006KT 7SM SCT020 21/05 A3026 NOSIG RMK 8/500 HZY AC CI
Suggested Route
GDL4A GDL UJ14 QET UJ5 TIKEB TIKEB1A


View recent IFR Routes data
Notes



Charts and Procedures

Charts for MMGL
No chart available
Charts for MMMX
No chart available

Windy.com Weather Map